Вернуться в каталог

COSMOS 2251 DEB

АктивенLEO
NORAD 38483·DEBRIS·🇷🇺 Russia

Запущен Jun 16, 1993 с Plesetsk Cosmodrome

Loading…

Ближайшие Пролёты (ближайшие 24 часа)

TLE

УстаревшееSource: Space-Track

Эпоха: Aug 29, 2026, 10:02 UTC

1 38483U 93036BTT 26241.41833115  .00001239  00000-0  45784-3 0  9994
2 38483  74.2581 266.4647 0114766 293.5756  65.3375 14.29831528671884

Отслеживайте COSMOS 2251 DEB в реальном времени с AllMySat

Download on the App Store